Weather in Davlekanovo

Russia / Republic of Bashkortostan     54°13′21″N   55°01′52″E
temp.,
°C
wind,
m/s
gust,
m/s
humid.,
%
clouds,
%
prec.,
mm/h
press.,
hPa
HPBL,
m
22 october, fri
fri2223:00+2sw81690100 5.0 1004785
02:00+4wsw71591100 0.6 1003585
05:00+5wsw61395100 0.6 1004437
08:00+6sw51195100 0.0 1005337
11:00+8sw61393100 0.0 1005482
14:00+11sw81574100 0.0 1004767
17:00+11sw81567100 0.0 1004869
20:00+9sw91767100 0.0 1005743
23 october, sat
sat2323:00+9sw91774100 0.0 1006679
02:00+9wsw7157932 0.0 1007651
05:00+8wsw6128799 0.0 1009408
08:00+9sw6128427 0.0 1010507
11:00+10sw7127527 0.0 1012881
14:00+13wsw814525 0.0 10121886
17:00+12wsw7135615 0.0 10121393
20:00+10sw61258100 0.0 1014463
24 october, sun
sun2423:00+8ssw4116399 0.0 1014282
02:00+9sw3862100 0.0 1013219
05:00+9s61379100 0.3 1011608
08:00+9ssw71490100 2.3 1008843
11:00+10sw71190100 3.1 1008809
14:00+10wsw51064100 0.3 10101299
17:00+10w5859100 0.3 1011469
20:00+6wsw3671100 0.0 1013132
25 october, mon
mon2523:00+4w358090 0.0 101480
02:00+3w2477100 0.0 101583
05:00+2w22735 0.0 101525
08:00+2wsw227327 0.0 101612
11:00+5sw346099 0.0 1016285
14:00+7w465497 0.0 10161358
17:00+6w4656100 0.1 1015964
20:00+3wnw6119081 0.3 1017759
26 october, tue
tue2623:000nw8127842 0.3 1019862
02:00−2nw7138022 0.0 1022655
05:00−3nw612805 0.0 1024577
08:00−3nw511846 0.0 1025481
11:00−1nnw676778 0.0 1027809
14:00+1nw56515 0.0 1027966
17:00+2wnw47457 0.0 1026562
20:00+1wsw41053100 0.0 1026476